Regional Weather Roundup
Issued by NWS

Home | Current Version | Previous Version | Text Only | Print | Product List | Glossary Off
Versions: 1 2 3 4 5 6 7 8 9 10 11 12 13 14 15 16 17 18 19 20 21 22 23 24 25 26 27 28 29 30 31 32 33 34 35 36 37 38 39 40 41 42 43 44 45 46 47 48 49 50

000
ASUS43 KLSX 221507
RWRMO

WEATHER SUMMARY FOR MISSOURI
NATIONAL WEATHER SERVICE SPRINGFIELD MO
1000 AM CDT FRI AUG 22 2014

NOTE: "FAIR" INDICATES FEW OR NO CLOUDS BELOW 12,000 FEET WITH NO
       SIGNIFICANT WEATHER AND/OR OBSTRUCTIONS TO VISIBILITY.
       CURRENT SKY AND/OR WEATHER CONDITIONS ARE NOT AVAILABLE FOR
       CHILLICOTHE AND FARMINGTON.

MOZ001>031-035>038-043-044-053-054-221600-
...NORTHERN AND WESTERN MISSOURI...

CITY           SKY/WX    TMP DP  RH WIND       PRES   REMARKS
KANSAS CTY INT PTSUNNY   80  73  79 S5        29.98R
KANSAS C DTWN  PTSUNNY   85  71  63 VRB3      29.96R HX  90
LEE`S SUMMIT   MOSUNNY   82  70  66 W6        29.99R
ST JOSEPH      CLOUDY    76  74  93 SW3       29.96S
CHILLICOTHE      N/A     79  74  84 S7        29.95F
KIRKSVILLE     CLOUDY    79  75  87 SW10      29.95R

$$
MOZ066>068-077>081-088>096-101>105-221600-
...SOUTHWEST MISSOURI...

CITY           SKY/WX    TMP DP  RH WIND       PRES   REMARKS
SPRINGFIELD    SUNNY     87  69  54 SW16      30.03R HX  91
JOPLIN         SUNNY     87  70  56 SW17      30.00S HX  92

$$
MOZ032>034-039>042-045>050-055>058-069>072-221600-
...CENTRAL MISSOURI...

CITY           SKY/WX    TMP DP  RH WIND       PRES   REMARKS
COLUMBIA       PTSUNNY   81  73  76 S3        30.00F
JEFFERSON CITY PTSUNNY   83  72  69 VRB5      29.98F
ROLLA          MOSUNNY   83  71  67 SW15      30.01F
SEDALIA        PTSUNNY   85  71  63 SW9G17    29.99R HX  90
WHITEMAN AFB   MOSUNNY   82  50  32 SW12      29.96S
OSAGE BEACH    MOSUNNY   84  72  65 W7        30.00S

$$
MOZ051-052-059>065-221600-
...EAST CENTRAL MISSOURI...

CITY           SKY/WX    TMP DP  RH WIND       PRES   REMARKS
ST LOUIS INTL  PTSUNNY   87  73  62 W7        30.01S HX  94
SPIRIT OF STL  PTSUNNY   82  73  74 CALM      30.00R
ST CHARLES     MOSUNNY   84  72  67 W6        29.99F

$$
MOZ072>076-082>087-097>100-106>115-221600-
...SOUTH CENTRAL AND SOUTHEAST MISSOURI...

CITY           SKY/WX    TMP DP  RH WIND       PRES   REMARKS
CAPE GIRARDEAU MOSUNNY   82  75  79 W6        30.05R
FARMINGTON     SUNNY     84  73  70 SW6       30.07S HX  91
POPLAR BLUFF   SUNNY     84  73  69 SW9       30.04R HX  90
WEST PLAINS    SUNNY     83  71  67 SW8       30.09R

$$


USA.gov is the U.S. government's official web portal to all federal, state and local government web resources and services.